Time,TemperatureF,DewpointF,PressureIn,WindDirection,WindDirectionDegrees,WindSpeedMPH,WindSpeedGustMPH,Humidity,HourlyPrecipIn,Conditions,Clouds,dailyrainin,SoftwareType,DateUTC
2013-01-19 00:07:00,26.8,19.0,30.34,West,270,0.0,-999.0,72,-99.99,,,0.00,Acu-Link.com,2013-01-19 05:07:00,
2013-01-19 00:22:00,26.2,19.1,30.35,SW,225,0.0,-999.0,74,-99.99,,,0.00,Acu-Link.com,2013-01-19 05:22:00,
2013-01-19 00:37:00,25.9,19.7,30.35,West,270,0.0,-999.0,77,-99.99,,,0.00,Acu-Link.com,2013-01-19 05:37:00,
2013-01-19 00:52:00,25.7,19.8,30.34,SSW,202,0.0,-999.0,78,-99.99,,,0.00,Acu-Link.com,2013-01-19 05:52:00,
2013-01-19 01:07:00,25.2,19.9,30.35,West,270,0.0,-999.0,80,-99.99,,,0.00,Acu-Link.com,2013-01-19 06:07:00,
2013-01-19 01:22:00,24.6,20.2,30.34,NE,45,0.0,-999.0,83,-99.99,,,0.00,Acu-Link.com,2013-01-19 06:22:00,
2013-01-19 01:37:00,24.8,19.2,30.34,South,180,0.0,-999.0,79,-99.99,,,0.00,Acu-Link.com,2013-01-19 06:37:00,
2013-01-19 01:52:00,26.4,19.0,30.34,SW,225,0.0,-999.0,73,-99.99,,,0.00,Acu-Link.com,2013-01-19 06:52:00,
2013-01-19 02:08:00,26.8,19.0,30.34,North,0,3.1,-999.0,72,-99.99,,,0.00,Acu-Link.com,2013-01-19 07:08:00,
2013-01-19 02:23:00,27.1,19.3,30.33,NW,315,0.0,-999.0,72,-99.99,,,0.00,Acu-Link.com,2013-01-19 07:23:00,
2013-01-19 02:38:00,27.1,19.3,30.33,SSW,202,0.0,-999.0,72,-99.99,,,0.00,Acu-Link.com,2013-01-19 07:38:00,
2013-01-19 02:53:00,26.8,19.9,30.31,West,270,0.0,-999.0,75,-99.99,,,0.00,Acu-Link.com,2013-01-19 07:53:00,
2013-01-19 03:08:00,27.1,19.7,30.31,ESE,112,0.0,-999.0,73,-99.99,,,0.00,Acu-Link.com,2013-01-19 08:08:00,
2013-01-19 03:23:00,27.1,20.6,30.30,SW,225,0.0,-999.0,76,-99.99,,,0.00,Acu-Link.com,2013-01-19 08:23:00,
2013-01-19 03:38:00,26.8,20.9,30.29,West,270,0.0,-999.0,78,-99.99,,,0.00,Acu-Link.com,2013-01-19 08:38:00,
2013-01-19 03:53:00,26.4,21.7,30.29,SSW,202,0.0,-999.0,82,-99.99,,,0.00,Acu-Link.com,2013-01-19 08:53:00,
2013-01-19 04:35:00,26.1,20.8,30.29,SSW,202,0.0,-999.0,80,-99.99,,,0.00,Acu-Link.com,2013-01-19 09:35:00,
2013-01-19 04:50:00,27.7,22.6,30.28,SSW,202,0.0,-999.0,81,-99.99,,,0.00,Acu-Link.com,2013-01-19 09:50:00,
2013-01-19 05:05:00,28.8,23.7,30.26,NW,315,3.8,-999.0,81,-99.99,,,0.00,Acu-Link.com,2013-01-19 10:05:00,
2013-01-19 05:20:00,29.3,24.5,30.26,West,270,4.3,-999.0,82,-99.99,,,0.00,Acu-Link.com,2013-01-19 10:20:00,
2013-01-19 05:36:00,29.1,24.9,30.26,ENE,67,3.8,-999.0,84,-99.99,,,0.00,Acu-Link.com,2013-01-19 10:36:00,
2013-01-19 05:51:00,29.5,25.8,30.25,ENE,67,3.1,-999.0,86,-99.99,,,0.00,Acu-Link.com,2013-01-19 10:51:00,
2013-01-19 06:06:00,29.7,26.6,30.25,WSW,247,3.8,-999.0,88,-99.99,,,0.00,Acu-Link.com,2013-01-19 11:06:00,
2013-01-19 07:57:00,31.1,30.3,30.22,WNW,292,3.8,-999.0,97,-99.99,,,0.00,Acu-Link.com,2013-01-19 12:57:00,
2013-01-19 08:12:00,31.5,31.0,30.23,SW,225,4.7,-999.0,98,-99.99,,,0.00,Acu-Link.com,2013-01-19 13:12:00,
2013-01-19 08:27:00,32.2,31.4,30.23,SSW,202,5.8,-999.0,97,-99.99,,,0.00,Acu-Link.com,2013-01-19 13:27:00,
2013-01-19 08:43:00,32.7,31.7,30.23,WSW,247,3.8,-999.0,96,-99.99,,,0.00,Acu-Link.com,2013-01-19 13:43:00,
2013-01-19 08:58:00,33.1,32.3,30.22,SSW,202,1.6,-999.0,97,-99.99,,,0.00,Acu-Link.com,2013-01-19 13:58:00,
2013-01-19 09:13:00,33.6,32.9,30.22,ESE,112,3.1,-999.0,97,-99.99,,,0.00,Acu-Link.com,2013-01-19 14:13:00,
2013-01-19 09:28:00,34.7,33.4,30.21,WNW,292,5.8,-999.0,95,-99.99,,,0.00,Acu-Link.com,2013-01-19 14:28:00,
2013-01-19 09:43:00,36.0,33.9,30.21,NNW,337,5.1,-999.0,92,-99.99,,,0.00,Acu-Link.com,2013-01-19 14:43:00,
2013-01-19 09:59:00,37.2,33.7,30.21,East,90,0.0,-999.0,87,-99.99,,,0.00,Acu-Link.com,2013-01-19 14:59:00,
2013-01-19 10:14:00,38.7,34.3,30.20,SSE,157,6.7,-999.0,84,-99.99,,,0.00,Acu-Link.com,2013-01-19 15:14:00,
2013-01-19 10:29:00,39.0,33.7,30.19,NNE,22,6.3,-999.0,81,-99.99,,,0.00,Acu-Link.com,2013-01-19 15:29:00,
2013-01-19 10:44:00,39.7,34.1,30.17,WNW,292,3.8,-999.0,80,-99.99,,,0.00,Acu-Link.com,2013-01-19 15:44:00,
2013-01-19 10:59:00,40.6,34.3,30.16,West,270,4.3,-999.0,78,-99.99,,,0.01,Acu-Link.com,2013-01-19 15:59:00,
2013-01-19 11:15:00,41.4,34.0,30.16,ESE,112,5.1,-999.0,75,-99.99,,,0.02,Acu-Link.com,2013-01-19 16:15:00,
2013-01-19 11:30:00,41.9,34.6,30.14,ESE,112,0.0,-999.0,75,-99.99,,,0.02,Acu-Link.com,2013-01-19 16:30:00,
2013-01-19 11:46:00,43.3,35.3,30.13,WNW,292,5.1,-999.0,73,-99.99,,,0.02,Acu-Link.com,2013-01-19 16:46:00,
2013-01-19 12:01:00,44.6,35.4,30.12,WSW,247,1.6,-999.0,70,-99.99,,,0.06,Acu-Link.com,2013-01-19 17:01:00,
2013-01-19 12:16:00,45.0,35.4,30.09,West,270,5.1,-999.0,69,-99.99,,,0.06,Acu-Link.com,2013-01-19 17:16:00,
2013-01-19 12:31:00,46.8,36.4,30.08,NW,315,0.0,-999.0,67,-99.99,,,0.09,Acu-Link.com,2013-01-19 17:31:00,
2013-01-19 12:47:00,46.6,35.8,30.07,North,0,5.1,-999.0,66,-99.99,,,0.09,Acu-Link.com,2013-01-19 17:47:00,
2013-01-19 13:02:00,45.9,35.2,30.07,NNE,22,3.1,-999.0,66,-99.99,,,0.09,Acu-Link.com,2013-01-19 18:02:00,
2013-01-19 13:17:00,46.6,35.5,30.05,WSW,247,4.3,-999.0,65,-99.99,,,0.17,Acu-Link.com,2013-01-19 18:17:00,
2013-01-19 13:47:00,46.8,34.8,30.05,NNW,337,3.1,-999.0,63,-99.99,,,0.24,Acu-Link.com,2013-01-19 18:47:00,
2013-01-19 14:03:00,46.9,35.4,30.04,West,270,0.0,-999.0,64,-99.99,,,0.24,Acu-Link.com,2013-01-19 19:03:00,
2013-01-19 14:18:00,47.1,36.0,30.03,NE,45,2.7,-999.0,65,-99.99,,,0.24,Acu-Link.com,2013-01-19 19:18:00,
2013-01-19 14:33:00,47.3,36.1,30.02,WNW,292,4.3,-999.0,65,-99.99,,,0.24,Acu-Link.com,2013-01-19 19:33:00,
2013-01-19 14:48:00,47.8,35.9,30.02,NNE,22,6.3,-999.0,63,-99.99,,,0.24,Acu-Link.com,2013-01-19 19:48:00,
2013-01-19 15:03:00,47.8,35.5,30.01,West,270,0.0,-999.0,62,-99.99,,,0.24,Acu-Link.com,2013-01-19 20:03:00,
2013-01-19 15:19:00,48.4,35.6,30.01,NW,315,0.0,-999.0,61,-99.99,,,0.24,Acu-Link.com,2013-01-19 20:19:00,
2013-01-19 15:34:00,48.7,35.9,30.01,SSE,157,5.1,-999.0,61,-99.99,,,0.24,Acu-Link.com,2013-01-19 20:34:00,
2013-01-19 15:49:00,48.4,35.6,30.01,WNW,292,0.0,-999.0,61,-99.99,,,0.24,Acu-Link.com,2013-01-19 20:49:00,
2013-01-19 16:04:00,48.0,36.0,30.00,NNW,337,0.0,-999.0,63,-99.99,,,0.24,Acu-Link.com,2013-01-19 21:04:00,
2013-01-19 16:19:00,48.2,35.4,29.99,SW,225,3.8,-999.0,61,-99.99,,,0.24,Acu-Link.com,2013-01-19 21:19:00,
2013-01-19 16:35:00,48.7,35.5,29.99,ESE,112,0.0,-999.0,60,-99.99,,,0.24,Acu-Link.com,2013-01-19 21:35:00,
2013-01-19 16:50:00,48.4,34.7,29.99,West,270,0.0,-999.0,59,-99.99,,,0.24,Acu-Link.com,2013-01-19 21:50:00,
2013-01-19 17:05:00,48.2,35.0,29.98,WNW,292,0.0,-999.0,60,-99.99,,,0.24,Acu-Link.com,2013-01-19 22:05:00,
2013-01-19 17:36:00,48.0,35.2,29.98,West,270,2.7,-999.0,61,-99.99,,,0.24,Acu-Link.com,2013-01-19 22:36:00,
2013-01-19 18:06:00,47.5,35.1,29.98,SSW,202,0.0,-999.0,62,-99.99,,,0.24,Acu-Link.com,2013-01-19 23:06:00,
2013-01-19 18:21:00,47.3,35.4,29.98,West,270,0.0,-999.0,63,-99.99,,,0.24,Acu-Link.com,2013-01-19 23:21:00,
2013-01-19 18:36:00,46.9,35.4,29.98,North,0,0.0,-999.0,64,-99.99,,,0.24,Acu-Link.com,2013-01-19 23:36:00,
2013-01-19 18:51:00,46.9,35.8,29.98,NW,315,0.0,-999.0,65,-99.99,,,0.24,Acu-Link.com,2013-01-19 23:51:00,
2013-01-19 19:06:00,46.8,36.0,29.97,SSW,202,3.8,-999.0,66,-99.99,,,0.24,Acu-Link.com,2013-01-20 00:06:00,
2013-01-19 19:21:00,46.2,35.9,29.97,NNE,22,0.0,-999.0,67,-99.99,,,0.24,Acu-Link.com,2013-01-20 00:21:00,
2013-01-19 19:36:00,45.5,35.9,29.97,ESE,112,0.0,-999.0,69,-99.99,,,0.24,Acu-Link.com,2013-01-20 00:36:00,
2013-01-19 19:51:00,45.0,35.8,29.96,NW,315,0.0,-999.0,70,-99.99,,,0.24,Acu-Link.com,2013-01-20 00:51:00,
2013-01-19 20:07:00,44.2,35.8,29.96,West,270,0.0,-999.0,72,-99.99,,,0.24,Acu-Link.com,2013-01-20 01:07:00,
2013-01-19 20:22:00,43.3,36.0,29.96,SW,225,0.0,-999.0,75,-99.99,,,0.24,Acu-Link.com,2013-01-20 01:22:00,
2013-01-19 20:37:00,42.6,35.6,29.95,West,270,0.0,-999.0,76,-99.99,,,0.24,Acu-Link.com,2013-01-20 01:37:00,
2013-01-19 21:07:00,41.9,36.2,29.93,WSW,247,0.0,-999.0,80,-99.99,,,0.24,Acu-Link.com,2013-01-20 02:07:00,
2013-01-19 21:22:00,41.7,36.6,29.93,South,180,0.0,-999.0,82,-99.99,,,0.24,Acu-Link.com,2013-01-20 02:22:00,
2013-01-19 21:37:00,41.7,36.6,29.93,SE,135,0.0,-999.0,82,-99.99,,,0.24,Acu-Link.com,2013-01-20 02:37:00,
2013-01-19 21:53:00,42.1,36.7,29.92,SW,225,0.0,-999.0,81,-99.99,,,0.24,Acu-Link.com,2013-01-20 02:53:00,
2013-01-19 22:23:00,42.8,36.7,29.91,SSW,202,0.0,-999.0,79,-99.99,,,0.24,Acu-Link.com,2013-01-20 03:23:00,
2013-01-19 22:38:00,43.0,36.9,29.91,WSW,247,0.0,-999.0,79,-99.99,,,0.24,Acu-Link.com,2013-01-20 03:38:00,
2013-01-19 22:53:00,42.8,37.4,29.90,NE,45,0.0,-999.0,81,-99.99,,,0.24,Acu-Link.com,2013-01-20 03:53:00,
2013-01-19 23:08:00,42.6,37.2,29.89,ENE,67,0.0,-999.0,81,-99.99,,,0.24,Acu-Link.com,2013-01-20 04:08:00,
2013-01-19 23:23:00,42.6,37.2,29.88,NW,315,0.0,-999.0,81,-99.99,,,0.24,Acu-Link.com,2013-01-20 04:23:00,
2013-01-19 23:39:00,42.3,37.2,29.87,ESE,112,0.0,-999.0,82,-99.99,,,0.24,Acu-Link.com,2013-01-20 04:39:00,
2013-01-19 23:54:00,42.3,37.5,29.87,West,270,2.2,-999.0,83,-99.99,,,0.24,Acu-Link.com,2013-01-20 04:54:00,